Regional Weather Roundup
Issued by NWS

Home | Current Version | Previous Version | Text Only | Print | Product List | Glossary Off
Versions: 1 2 3 4 5 6 7 8 9 10 11 12 13 14 15 16 17 18 19 20 21 22 23 24 25 26 27 28 29 30 31 32 33 34 35 36 37 38 39 40 41 42 43 44 45 46 47 48 49 50

806
ASUS43 KFSD 291510
RWRSD

WEATHER ROUNDUP FOR SOUTH DAKOTA
NATIONAL WEATHER SERVICE SIOUX FALLS SD
1000 AM CDT MON AUG 29 2016

NOTE: "FAIR" INDICATES FEW OR NO CLOUDS BELOW 12,000 FEET WITH NO
SIGNIFICANT WEATHER AND/OR OBSTRUCTIONS TO VISIBILITY.


SDZ001>005-009-010-012>017-291600-
NORTHWEST AND NORTH CENTRAL SOUTH DAKOTA

CITY           SKY/WX    TMP DP  RH WIND       PRES   REMARKS
BUFFALO          N/A     64  53  67 NE20      30.21R
FAITH            N/A     70  55  59 NE23      30.21R
MOBRIDGE       SUNNY     73  57  57 NE15G24   30.16R
$$

SDZ012>016-024>037-041>051-057-063-072>074-291600-
SOUTHWEST AND SOUTH CENTRAL SOUTH DAKOTA

CITY           SKY/WX    TMP DP  RH WIND       PRES   REMARKS
RAPID CTY ARPT SUNNY     67  52  58 N14       30.26R
PIERRE         SUNNY     72  62  71 N7        30.11R
CUSTER         SUNNY     70  45  40 N3        30.35R
ELLSWORTH AFB  MOSUNNY   68  52  56 N14G23    30.26
PHILIP         SUNNY     70  59  68 NE13      30.16R
PINE RIDGE     SUNNY     71  54  54 CALM      30.22R
WINNER         FAIR      78  65  63 SW13      30.13R
$$

SDZ004>011-016>023-039-040-291600-
NORTHEAST SOUTH DAKOTA

CITY           SKY/WX    TMP DP  RH WIND       PRES   REMARKS
ABERDEEN       CLOUDY    70  65  84 N10       30.12S
WATERTOWN      MOSUNNY   76  70  82 NE10      30.16R
SISSETON         N/A     77  70  79 S13G20    30.13R
$$

SDZ017-020-022-023-036>040-048>070-291600-
SOUTHEAST SOUTH DAKOTA

CITY           SKY/WX    TMP DP  RH WIND       PRES   REMARKS
SIOUX FALLS    PTSUNNY   76  68  76 S5        30.17R
HURON          SUNNY     77  68  73 S12       30.11R
CHAMBERLAIN    SUNNY     78  66  66 W8        30.13R
MITCHELL       SUNNY     77  69  76 SW5       30.13R
YANKTON        PTSUNNY   73  64  73 SE5       30.15R
$$

ABBREVIATIONS USED IN REMARKS
   TC - TEMPERATURE IN CELSIUS
  WCI - WIND CHILL INDEX
   HX - HEAT INDEX
  VSB - VISIBILITY





USA.gov is the U.S. government's official web portal to all federal, state and local government web resources and services.